Westhampton Beach, NY

5:57 AM EDT on August 26, 2016 (GMT -0400)
The Gabreski

Weather History for KFOK - March, 2012

Change the Weather History Date:

Friday, March 23, 2012

  Actual Average Record
Temperature  
Mean Temperature 58 °F -  
Max Temperature 71 °F 46 °F 71 °F (2012)
Min Temperature 43 °F 29 °F 5 °F (2004)
Degree Days  
Heating Degree Days 6    
Growing Degree Days 8 (Base 50)    
Moisture  
Dew Point 45 °F    
Average Humidity 80    
Maximum Humidity 100    
Minimum Humidity 37    
Precipitation  
Precipitation 0.00 in - - ()
Sea Level Pressure  
Sea Level Pressure 30.07 in    
Wind  
Wind Speed 1 mph (East)    
Max Wind Speed 12 mph    
Max Gust Speed 22 mph    
Visibility 6 miles    
Events Fog    
Averages and records for this station are not official NWS values.
T = Trace of Precipitation, MM = Missing Value Source: NWS Daily Summary

Daily Weather History Graph

Daily Weather History Graph

Search for Another Location

Airport or City:

Trip Planner

Search our weather history database for the weather conditions in past years. The results will help you decide how hot, cold, wet, or windy it might be!

Date:

Astronomy

Mar. 23, 2012 Rise Set
Actual Time 6:48 AM EDT 7:06 PM EDT
Civil Twilight 6:20 AM EDT 7:33 PM EDT
Nautical Twilight 5:48 AM EDT 8:05 PM EDT
Astronomical Twilight 5:15 AM EDT 8:38 PM EDT
Moon 6:54 AM EDT (3/23) 8:26 PM EDT (3/23)
Length of Visible Light 13h 13m
Length of Day
12h 18m
New Moon, 1% of the Moon is Illuminated
Mar 23
New Moon
Mar 30
First Quarter
Apr 6
Full
Apr 13
Last Quarter
Apr 21
New

Hourly Weather History & Observations

Time (EDT) Temp. Windchill Dew Point Humidity Pressure Visibility Wind Dir Wind Speed Gust Speed Precip Events Conditions
12:26 AM 50.0 °F - 48.2 °F 94% 30.08 in 1.8 mi Calm Calm - N/A   Clear
12:51 AM 50.0 °F - 48.2 °F 94% 30.08 in 3.0 mi Calm Calm - N/A   Clear
12:53 AM 50.0 °F - 48.0 °F 93% 30.08 in 4.0 mi Calm Calm - N/A   Clear
1:16 AM 50.0 °F - 48.2 °F 94% 30.08 in 1.8 mi Calm Calm - N/A   Clear
1:25 AM 48.2 °F - 46.4 °F 93% 30.08 in 0.5 mi Calm Calm - N/A Fog Fog
1:41 AM 50.0 °F - 46.4 °F 87% 30.08 in 2.0 mi Calm Calm - N/A   Clear
1:47 AM 48.2 °F - 48.2 °F 100% 30.07 in 0.8 mi Calm Calm - N/A   Clear
1:53 AM 48.0 °F - 46.0 °F 93% 30.07 in 0.8 mi Calm Calm - N/A   Clear
2:00 AM 48.2 °F - 46.4 °F 93% 30.07 in 2.0 mi Calm Calm - N/A   Clear
2:10 AM 48.2 °F - 46.4 °F 93% 30.07 in 10.0 mi Calm Calm - N/A   Clear
2:31 AM 48.2 °F - 44.6 °F 87% 30.07 in 9.0 mi Calm Calm - N/A   Partly Cloudy
2:47 AM 46.4 °F - 44.6 °F 93% 30.06 in 1.8 mi Calm Calm - N/A   Mostly Cloudy
2:53 AM 46.9 °F - 45.0 °F 93% 30.06 in 1.0 mi Calm Calm - N/A   Mist
3:00 AM 46.4 °F - 44.6 °F 93% 30.06 in 0.8 mi Calm Calm - N/A   Mist
3:06 AM 46.4 °F - 44.6 °F 93% 30.06 in 2.0 mi Calm Calm - N/A   Overcast
3:14 AM 46.4 °F - 44.6 °F 93% 30.06 in 5.0 mi Calm Calm - N/A   Mostly Cloudy
3:21 AM 46.4 °F - 44.6 °F 93% 30.06 in 1.2 mi Calm Calm - N/A   Mostly Cloudy
3:53 AM 46.0 °F - 44.1 °F 93% 30.05 in 6.0 mi Calm Calm - N/A   Scattered Clouds
4:14 AM 46.4 °F - 42.8 °F 87% 30.05 in 6.0 mi Calm Calm - N/A   Mostly Cloudy
4:22 AM 46.4 °F - 44.6 °F 93% 30.05 in 6.0 mi Calm Calm - N/A   Scattered Clouds
4:53 AM 46.0 °F - 43.0 °F 89% 30.05 in 6.0 mi Calm Calm - N/A   Mostly Cloudy
5:36 AM 46.4 °F - 44.6 °F 93% 30.05 in 6.0 mi Calm Calm - N/A   Scattered Clouds
5:53 AM 46.0 °F - 43.0 °F 89% 30.05 in 6.0 mi Calm Calm - N/A   Clear
6:21 AM 46.4 °F - 42.8 °F 87% 30.06 in 1.5 mi Calm Calm - N/A   Clear
6:31 AM 46.4 °F 45.2 °F 42.8 °F 87% 30.06 in 3.0 mi NNW 3.5 mph - N/A   Clear
6:53 AM 48.9 °F - 46.9 °F 93% 30.06 in 1.8 mi Calm Calm - N/A   Clear
7:26 AM 53.6 °F - 51.8 °F 94% 30.07 in 2.5 mi Calm Calm - N/A   Clear
7:53 AM 60.1 °F - 55.9 °F 86% 30.09 in 5.0 mi North 11.5 mph - N/A   Clear
8:53 AM 63.0 °F - 55.9 °F 78% 30.10 in 10.0 mi NE 10.4 mph - N/A   Mostly Cloudy
10:53 AM 71.1 °F - 54.0 °F 55% 30.12 in 10.0 mi ENE 10.4 mph 19.6 mph N/A   Mostly Cloudy
11:53 AM 69.1 °F - 45.0 °F 42% 30.13 in 10.0 mi East 10.4 mph 17.3 mph N/A   Mostly Cloudy
12:53 PM 63.0 °F - 43.0 °F 48% 30.14 in 10.0 mi East 11.5 mph 20.7 mph N/A   Overcast
1:53 PM 62.1 °F - 41.0 °F 46% 30.12 in 10.0 mi ESE 11.5 mph 21.9 mph N/A   Overcast
2:53 PM 64.0 °F - 37.0 °F 37% 30.11 in 10.0 mi East 9.2 mph 16.1 mph N/A   Mostly Cloudy
3:53 PM 63.0 °F - 37.9 °F 40% 30.09 in 10.0 mi SE 9.2 mph - N/A   Clear
4:53 PM 63.0 °F - 37.9 °F 40% 30.07 in 10.0 mi SE 6.9 mph - N/A   Clear
5:53 PM 59.0 °F - 37.9 °F 46% 30.07 in 10.0 mi South 4.6 mph - N/A   Clear
6:53 PM 55.0 °F - 41.0 °F 59% 30.06 in 10.0 mi South 4.6 mph - N/A   Clear
7:53 PM 53.1 °F - 41.0 °F 64% 30.06 in 10.0 mi Calm Calm - N/A   Clear
8:53 PM 48.9 °F - 41.0 °F 74% 30.06 in 10.0 mi Calm Calm - N/A   Clear
9:53 PM 46.9 °F - 39.9 °F 77% 30.06 in 10.0 mi West 3.5 mph - N/A   Clear
10:53 PM 46.9 °F - 39.9 °F 77% 30.06 in 10.0 mi Calm Calm - N/A   Clear
11:53 PM 43.0 °F - 37.0 °F 80% 30.06 in 10.0 mi Calm Calm - N/A   Clear